Weather History for KJCT - March, 2013

Change the Weather History Date:

Friday, March 15, 2013

  Actual Average Record
Temperature  
Mean Temperature 67 °F -  
Max Temperature 82 °F 67 °F 84 °F (2007)
Min Temperature 52 °F 43 °F 25 °F (1999)
Cooling Degree Days 2    
Growing Degree Days 17 (Base 50)    
Moisture  
Dew Point 45 °F    
Average Humidity 48    
Maximum Humidity 83    
Minimum Humidity 18    
Precipitation  
Precipitation 0.00 in - - ()
Sea Level Pressure  
Sea Level Pressure 30.01 in    
Wind  
Wind Speed 5 mph (SSW)    
Max Wind Speed 16 mph    
Max Gust Speed 23 mph    
Visibility 10 miles    
Events      
Averages and records for this station are not official NWS values.
T = Trace of Precipitation, MM = Missing Value Source: NWS Daily Summary

Daily Weather History Graph

Daily Weather History Graph

Search for Another Location

Airport or City:

Trip Planner

Search our weather history database for the weather conditions in past years. The results will help you decide how hot, cold, wet, or windy it might be!

Date:

Astronomy

Mar. 15, 2013 Rise Set
Actual Time 7:48 AM CDT 7:47 PM CDT
Civil Twilight 7:24 AM CDT 8:11 PM CDT
Nautical Twilight 6:56 AM CDT 8:39 PM CDT
Astronomical Twilight 6:28 AM CDT 9:07 PM CDT
Moon 9:58 AM CDT (3/15) 11:43 PM CDT (3/15)
Length of Visible Light 12h 46m
Length of Day
11h 58m
Waxing Crescent, 15% of the Moon is Illuminated
Mar 15
Waxing Crescent
Mar 19
First Quarter
Mar 27
Full
Apr 2
Last Quarter
Apr 10
New

Hourly Weather History & Observations

Time (CDT) Temp. Dew Point Humidity Pressure Visibility Wind Dir Wind Speed Gust Speed Precip Events Conditions
12:51 AM 60.1 °F 37.9 °F 44% 30.13 in 10.0 mi Calm Calm - N/A   Clear
1:51 AM 60.1 °F 45.0 °F 57% 30.13 in 10.0 mi South 5.8 mph - N/A   Clear
2:51 AM 57.9 °F 46.9 °F 67% 30.12 in 10.0 mi South 3.5 mph - N/A   Clear
3:51 AM 57.9 °F 48.0 °F 70% 30.11 in 10.0 mi Calm Calm - N/A   Clear
4:51 AM 55.0 °F 46.9 °F 74% 30.10 in 9.0 mi Calm Calm - N/A   Clear
5:51 AM 54.0 °F 46.9 °F 77% 30.09 in 9.0 mi Calm Calm - N/A   Clear
6:51 AM 52.0 °F 46.9 °F 83% 30.09 in 9.0 mi Calm Calm - N/A   Clear
7:51 AM 52.0 °F 46.9 °F 83% 30.09 in 7.0 mi Calm Calm - N/A   Clear
8:51 AM 54.0 °F 48.9 °F 83% 30.11 in 7.0 mi Calm Calm - N/A   Clear
9:51 AM 60.1 °F 50.0 °F 69% 30.12 in 9.0 mi SSW 11.5 mph - N/A   Clear
10:51 AM 66.0 °F 48.9 °F 54% 30.10 in 9.0 mi SSW 11.5 mph - N/A   Clear
11:51 AM 71.1 °F 48.0 °F 44% 30.07 in 10.0 mi South 12.7 mph - N/A   Clear
12:51 PM 73.9 °F 48.0 °F 40% 30.04 in 9.0 mi South 15.0 mph - N/A   Clear
1:51 PM 75.9 °F 45.0 °F 33% 30.00 in 10.0 mi SSW 16.1 mph 21.9 mph N/A   Clear
2:51 PM 79.0 °F 42.1 °F 27% 29.96 in 10.0 mi SW 12.7 mph 21.9 mph N/A   Clear
3:51 PM 80.1 °F 39.9 °F 24% 29.93 in 10.0 mi South 12.7 mph 23.0 mph N/A   Clear
4:51 PM 80.1 °F 39.9 °F 24% 29.91 in 10.0 mi SW 11.5 mph 21.9 mph N/A   Clear
5:51 PM 80.1 °F 45.0 °F 29% 29.90 in 10.0 mi South 13.8 mph 20.7 mph N/A   Clear
6:51 PM 79.0 °F 43.0 °F 28% 29.89 in 10.0 mi SSW 12.7 mph - N/A   Clear
7:51 PM 75.0 °F 45.0 °F 34% 29.90 in 9.0 mi South 10.4 mph - N/A   Clear
8:51 PM 72.0 °F 43.0 °F 35% 29.91 in 10.0 mi South 6.9 mph - N/A   Clear
9:51 PM 69.1 °F 43.0 °F 39% 29.91 in 10.0 mi South 4.6 mph - N/A   Clear
10:51 PM 66.9 °F 43.0 °F 42% 29.90 in 10.0 mi South 3.5 mph - N/A   Clear
11:51 PM 64.0 °F 43.0 °F 46% 29.88 in 10.0 mi Calm Calm - N/A   Clear